H1 CPF 2 NER 2024 4 30 9 121 01 glonass129 H2 1106402 9129 37868 2024 4 30 0 0 0 2024 5 3 23 45 0 900 1 1 0 0 0 1 H9 10 0 60430 0.00000 0 2148298.365 19496329.813 -16234265.223 10 0 60430 900.00000 0 1129918.252 17604629.512 -18357641.829 10 0 60430 1800.00000 0 -162027.885 15596199.566 -20122444.230 10 0 60430 2700.00000 0 -1718834.975 13537067.270 -21494201.802 10 0 60430 3600.00000 0 -3519159.071 11492086.013 -22446164.944 10 0 60430 4500.00000 0 -5529680.282 9522314.620 -22959831.447 10 0 60430 5400.00000 0 -7706282.738 7682577.041 -23025305.559 10 0 60430 6300.00000 0 -9995701.801 6019305.605 -22641483.051 10 0 60430 7200.00000 0 -12337568.678 4568758.427 -21816059.385 10 0 60430 8100.00000 0 -14666765.668 3355685.010 -20565361.915 10 0 60430 9000.00000 0 -16915992.319 2392494.466 -18914010.735 10 0 60430 9900.00000 0 -19018434.037 1678959.015 -16894416.318 10 0 60430 10800.00000 0 -20910420.780 1202462.334 -14546125.357 10 0 60430 11700.00000 0 -22533964.389 938779.134 -11915029.124 10 0 60430 12600.00000 0 -23839068.699 853349.828 -9052451.362 10 0 60430 13500.00000 0 -24785716.690 902993.453 -6014134.807 10 0 60430 14400.00000 0 -25345453.055 1037983.878 -2859147.228 10 0 60430 15300.00000 0 -25502497.877 1204399.522 351270.868 10 0 60430 16200.00000 0 -25254347.107 1346645.966 3554894.000 10 0 60430 17100.00000 0 -24611837.136 1410044.274 6689711.813 10 0 60430 18000.00000 0 -23598673.002 1343375.849 9695118.627 10 0 60430 18900.00000 0 -22250441.946 1101277.141 12513070.219 10 0 60430 19800.00000 0 -20613154.883 646384.413 15089186.770 10 0 60430 20700.00000 0 -18741377.426 -48860.432 17373782.280 10 0 60430 21600.00000 0 -16696028.310 -1000817.593 19322802.467 10 0 60430 22500.00000 0 -14541936.081 -2213728.200 20898655.123 10 0 60430 23400.00000 0 -12345254.258 -3679302.458 22070918.835 10 0 60430 24300.00000 0 -10170840.355 -5376834.641 22816918.196 10 0 60430 25200.00000 0 -8079705.356 -7273841.298 23122155.755 10 0 60430 26100.00000 0 -6126637.181 -9327197.907 22980593.195 10 0 60430 27000.00000 0 -4358094.669 -11484729.196 22394776.502 10 0 60430 27900.00000 0 -2810457.826 -13687189.918 21375802.157 10 0 60430 28800.00000 0 -1508705.962 -15870556.793 19943123.847 10 0 60430 29700.00000 0 -465578.297 -17968539.292 18124201.639 10 0 60430 30600.00000 0 318747.735 -19915207.350 15953998.166 10 0 60430 31500.00000 0 856446.181 -21647628.392 13474329.142 10 0 60430 32400.00000 0 1171307.803 -23108404.754 10733078.282 10 0 60430 33300.00000 0 1297510.212 -24248005.579 7783289.549 10 0 60430 34200.00000 0 1277943.218 -25026794.735 4682152.497 10 0 60430 35100.00000 0 1162158.897 -25416668.130 1489899.137 10 0 60430 36000.00000 0 1004032.424 -25402229.382 -1731366.840 10 0 60430 36900.00000 0 859232.784 -24981451.831 -4918885.517 10 0 60430 37800.00000 0 782611.447 -24165796.390 -8010476.360 10 0 60430 38700.00000 0 825621.393 -22979777.910 -10945768.460 10 0 60430 39600.00000 0 1033878.269 -21459996.505 -13667399.481 10 0 60430 40500.00000 0 1444969.825 -19653673.505 -16122157.800 10 0 60430 41400.00000 0 2086609.442 -17616753.350 -18262043.360 10 0 60430 42300.00000 0 2975214.770 -15411651.730 -20045224.470 10 0 60430 43200.00000 0 4114974.157 -13104745.688 -21436870.187 10 0 60430 44100.00000 0 5497442.300 -10763712.548 -22409840.757 10 0 60430 45000.00000 0 7101683.538 -8454830.975 -22945221.848 10 0 60430 45900.00000 0 8894957.390 -6240358.768 -23032691.945 10 0 60430 46800.00000 0 10833917.474 -4176098.303 -22670715.985 10 0 60430 47700.00000 0 12866272.814 -2309252.031 -21866562.149 10 0 60430 48600.00000 0 14932840.778 -676657.477 -20636142.579 10 0 60430 49500.00000 0 16969904.298 696525.508 -19003682.429 10 0 60430 50400.00000 0 18911773.291 1797622.232 -17001225.229 10 0 60430 51300.00000 0 20693441.875 2626714.166 -14667985.838 10 0 60430 52200.00000 0 22253229.373 3196365.305 -12049565.167 10 0 60430 53100.00000 0 23535294.227 3530818.793 -9197043.547 10 0 60430 54000.00000 0 24491915.913 3664701.062 -6165971.791 10 0 60430 54900.00000 0 25085450.179 3641291.232 -3015280.721 10 0 60430 55800.00000 0 25289877.199 3510431.410 193868.719 10 0 60430 56700.00000 0 25091879.633 3326168.032 3399271.946 10 0 60430 57600.00000 0 24491407.573 3144225.001 6538880.706 10 0 60430 58500.00000 0 23501708.787 3019415.679 9551993.600 10 0 60430 59400.00000 0 22148824.890 3003102.580 12380414.943 10 0 60430 60300.00000 0 20470575.911 3140810.963 14969560.837 10 0 60430 61200.00000 0 18515076.478 3470095.525 17269492.629 10 0 60430 62100.00000 0 16338845.585 4018748.532 19235859.751 10 0 60430 63000.00000 0 14004587.967 4803423.411 20830735.756 10 0 60430 63900.00000 0 11578738.030 5828730.655 22023333.345 10 0 60430 64800.00000 0 9128866.359 7086843.684 22790586.434 10 0 60430 65700.00000 0 6721054.103 8557631.678 23117589.356 10 0 60430 66600.00000 0 4417341.635 10209315.115 22997885.598 10 0 60430 67500.00000 0 2273354.869 11999618.741 22433600.699 10 0 60430 68400.00000 0 336205.561 13877376.541 21435416.262 10 0 60430 69300.00000 0 -1357248.793 15784524.782 20022384.430 10 0 60430 70200.00000 0 -2781714.053 17658403.103 18221584.662 10 0 60430 71100.00000 0 -3924283.307 19434270.512 16067627.234 10 0 60430 72000.00000 0 -4784740.646 21047933.505 13602010.625 10 0 60430 72900.00000 0 -5375331.197 22438377.987 10872342.749 10 0 60430 73800.00000 0 -5720005.732 23550295.452 7931438.808 10 0 60430 74700.00000 0 -5853170.149 24336397.098 4836311.400 10 0 60430 75600.00000 0 -5817991.277 24759417.447 1647071.187 10 0 60430 76500.00000 0 -5664329.607 24793721.153 -1574241.143 10 0 60430 77400.00000 0 -5446386.165 24426442.755 -4764868.737 10 0 60430 78300.00000 0 -5220163.596 23658108.536 -7862573.801 10 0 60430 79200.00000 0 -5040850.311 22502711.541 -10806868.712 10 0 60430 80100.00000 0 -4960240.513 20987234.187 -13540217.085 10 0 60430 81000.00000 0 -5024301.926 19150636.834 -16009179.244 10 0 60430 81900.00000 0 -5270997.068 17042353.872 -18165477.579 10 0 60430 82800.00000 0 -5728453.120 14720360.375 -19966958.911 10 0 60430 83700.00000 0 -6413560.403 12248891.074 -21378433.365 10 0 60430 84600.00000 0 -7331060.846 9695908.452 -22372372.079 10 0 60430 85500.00000 0 -8473166.419 7130427.546 -22929449.324 10 0 60431 0.00000 0 -9819724.333 4619811.155 -23038918.208 10 0 60431 900.00000 0 -11338922.927 2227148.547 -22698812.849 10 0 60431 1800.00000 0 -12988506.165 8831.389 -21915973.725 10 0 60431 2700.00000 0 -14717447.073 -1987576.157 -20705896.953 10 0 60431 3600.00000 0 -16468006.730 -3725081.467 -19092411.514 10 0 60431 4500.00000 0 -18178091.565 -5178551.572 -17107192.387 10 0 60431 5400.00000 0 -19783808.524 -6335493.533 -14789120.654 10 0 60431 6300.00000 0 -21222109.803 -7196297.350 -12183504.647 10 0 60431 7200.00000 0 -22433415.469 -7773934.561 -9341178.885 10 0 60431 8100.00000 0 -23364103.776 -8093128.777 -6317499.717 10 0 60431 9000.00000 0 -23968765.154 -8189036.442 -3171258.395 10 0 60431 9900.00000 0 -24212126.249 -8105496.487 36466.385 10 0 60431 10800.00000 0 -24070564.792 -7892925.093 3243493.663 10 0 60431 11700.00000 0 -23533153.515 -7605946.123 6387740.034 10 0 60431 12600.00000 0 -22602191.235 -7300858.053 9408411.123 10 0 60431 13500.00000 0 -21293200.644 -7033044.353 12247162.489 10 0 60431 14400.00000 0 -19634394.301 -6854435.841 14849208.736 10 0 60431 15300.00000 0 -17665632.035 -6811130.754 17164360.976 10 0 60431 16200.00000 0 -15436913.486 -6941271.151 19147974.509 10 0 60431 17100.00000 0 -13006468.028 -7273263.414 20761790.457 10 0 60431 18000.00000 0 -10438520.285 -7824416.201 21974657.082 10 0 60431 18900.00000 0 -7800822.172 -8600052.158 22763118.648 10 0 60431 19800.00000 0 -5162051.404 -9593130.418 23111861.892 10 0 60431 20700.00000 0 -2589181.773 -10784396.325 23014012.329 10 0 60431 21600.00000 0 -144931.457 -12143053.548 22471274.926 10 0 60431 22500.00000 0 2114607.330 -13627932.667 21493915.970 10 0 60431 23400.00000 0 4142060.967 -15189110.074 20100585.343 10 0 60431 24300.00000 0 5900503.861 -16769912.494 18317980.920 10 0 60431 25200.00000 0 7364753.429 -18309226.226 16180359.381 10 0 60431 26100.00000 0 8522176.583 -19744017.070 13728900.480 10 0 60431 27000.00000 0 9372973.376 -21011957.269 11010934.575 10 0 60431 27900.00000 0 9929924.777 -22054050.461 8079046.086 10 0 60431 28800.00000 0 10217613.764 -22817144.452 4990068.397 10 0 60431 29700.00000 0 10271151.094 -23256225.325 1803988.358 10 0 60431 30600.00000 0 10134458.398 -23336394.556 -1417218.957 10 0 60431 31500.00000 0 9858180.460 -23034443.335 -4610802.474 10 0 60431 32400.00000 0 9497315.062 -22339954.846 -7714469.911 10 0 60431 33300.00000 0 9108661.509 -21255884.998 -10667619.710 10 0 60431 34200.00000 0 8748197.444 -19798594.302 -13412544.179 10 0 60431 35100.00000 0 8468497.191 -17997327.212 -15895578.250 10 0 60431 36000.00000 0 8316303.503 -15893159.181 -18068169.283 10 0 60431 36900.00000 0 8330358.166 -13537454.855 -19887844.920 10 0 60431 37800.00000 0 8539585.800 -10989902.120 -21319058.382 10 0 60431 38700.00000 0 8961709.808 -8316205.037 -22333893.401 10 0 60431 39600.00000 0 9602360.557 -5585533.477 -22912614.164 10 0 60431 40500.00000 0 10454714.346 -2867837.520 -23044049.305 10 0 60431 41400.00000 0 11499678.652 -231140.191 -22725802.631 10 0 60431 42300.00000 0 12706615.356 2261077.336 -21964287.152 10 0 60431 43200.00000 0 14034570.501 4552288.402 -20774582.795 10 0 60431 44100.00000 0 15433957.402 6595030.904 -19180121.881 10 0 60431 45000.00000 0 16848620.664 8352627.583 -17212210.013 10 0 60431 45900.00000 0 18218192.647 9800446.508 -14909393.335 10 0 60431 46800.00000 0 19480641.862 10926651.592 -12316686.079 10 0 60431 47700.00000 0 20574905.026 11732414.823 -9484675.040 10 0 60431 48600.00000 0 21443491.532 12231584.770 -6468519.821 10 0 60431 49500.00000 0 22034950.812 12449828.834 -3326869.476 10 0 60431 50400.00000 0 22306099.414 12423288.659 -120717.537 10 0 60431 51300.00000 0 22223915.265 12196808.154 3087781.774 10 0 60431 52200.00000 0 21767021.002 11821811.016 6236513.116 10 0 60431 53100.00000 0 20926695.741 11353918.584 9264592.362 10 0 60431 54000.00000 0 19707374.500 10850408.999 12113529.460 10 0 60431 54900.00000 0 18126615.744 10367624.432 14728340.515 10 0 60431 55800.00000 0 16214539.359 9958434.617 17058589.199 10 0 60431 56700.00000 0 14012758.862 9669861.949 19059339.239 10 0 60431 57600.00000 0 11572851.971 9540966.255 20692001.635 10 0 60431 58500.00000 0 8954432.075 9601076.398 21925062.201 10 0 60431 59400.00000 0 6222898.939 9868441.507 22734677.212 10 0 60431 60300.00000 0 3446959.578 10349357.536 23105127.086 10 0 60431 61200.00000 0 696019.428 11037805.625 23029120.208 10 0 60431 62100.00000 0 -1962450.996 11915618.069 22507941.334 10 0 60431 63000.00000 0 -4465467.545 12953166.463 21551441.277 10 0 60431 63900.00000 0 -6756898.566 14110545.362 20177866.963 10 0 60431 64800.00000 0 -8789549.316 15339204.531 18413533.463 10 0 60431 65700.00000 0 -10526879.144 16583964.229 16292342.168 10 0 60431 66600.00000 0 -11944280.248 17785331.693 13855151.984 10 0 60431 67500.00000 0 -13029864.286 18882023.839 11149013.256 10 0 60431 68400.00000 0 -13784722.962 19813591.734 8226276.922 10 0 60431 69300.00000 0 -14222650.303 20523036.991 5143594.259 10 0 60431 70200.00000 0 -14369336.774 20959309.584 1960825.301 10 0 60431 71100.00000 0 -14261067.838 21079580.384 -1260123.571 10 0 60431 72000.00000 0 -13942980.846 20851190.386 -4456510.159 10 0 60431 72900.00000 0 -13466953.540 20253191.547 -7565990.755 10 0 60431 73800.00000 0 -12889213.751 19277411.086 -10527852.840 10 0 60431 74700.00000 0 -12267772.553 17928991.237 -13284220.220 10 0 60431 75600.00000 0 -11659791.199 16226378.879 -15781205.014 10 0 60431 76500.00000 0 -11118995.516 14200763.244 -17969981.840 10 0 60431 77400.00000 0 -10693249.625 11894983.839 -19807761.130 10 0 60431 78300.00000 0 -10422394.029 9361953.790 -21258640.830 10 0 60431 79200.00000 0 -10336441.635 6662664.747 -22294318.539 10 0 60431 80100.00000 0 -10454209.576 3863857.698 -22894649.293 10 0 60431 81000.00000 0 -10782445.626 1035458.194 -23048037.830 10 0 60431 81900.00000 0 -11315486.346 -1752115.534 -22751657.864 10 0 60431 82800.00000 0 -12035460.994 -4430657.994 -22011494.729 10 0 60431 83700.00000 0 -12913031.520 -6936781.699 -20842211.592 10 0 60431 84600.00000 0 -13908635.965 -9214313.346 -19266843.164 10 0 60431 85500.00000 0 -14974181.039 -11216381.408 -17316324.365 10 0 60432 0.00000 0 -16055110.552 -12907109.126 -15028864.988 10 0 60432 900.00000 0 -17092761.364 -14262845.065 -12449182.854 10 0 60432 1800.00000 0 -18026904.624 -15272880.269 -9627615.129 10 0 60432 2700.00000 0 -18798366.186 -15939628.183 -6619122.411 10 0 60432 3600.00000 0 -19351613.838 -16278260.913 -3482209.175 10 0 60432 4500.00000 0 -19637203.086 -16315821.469 -277781.312 10 0 60432 5400.00000 0 -19613979.071 -16089852.279 2932036.273 10 0 60432 6300.00000 0 -19250943.084 -15646600.234 6085098.963 10 0 60432 7200.00000 0 -18528706.613 -15038875.729 9120435.617 10 0 60432 8100.00000 0 -17440473.360 -14323656.791 11979413.329 10 0 60432 9000.00000 0 -15992509.388 -13559539.365 14606852.445 10 0 60432 9900.00000 0 -14204082.775 -12804140.335 16952071.829 10 0 60432 10800.00000 0 -12106875.727 -12111561.223 18969846.083 10 0 60432 11700.00000 0 -9743893.496 -11530017.318 20621258.259 10 0 60432 12600.00000 0 -7167914.616 -11099729.889 21874433.565 10 0 60432 13500.00000 0 -4439545.224 -10851168.030 22705141.753 10 0 60432 14400.00000 0 -1624955.950 -10803712.399 23097257.983 10 0 60432 15300.00000 0 1206607.497 -10964795.970 23043074.181 10 0 60432 16200.00000 0 3985439.839 -11329557.697 22543455.187 10 0 60432 17100.00000 0 6644012.434 -11881024.294 21607836.279 10 0 60432 18000.00000 0 9119523.544 -12590814.019 20254061.044 10 0 60432 18900.00000 0 11356259.036 -13420335.043 18508061.054 10 0 60432 19800.00000 0 13307666.947 -14322430.653 16403381.390 10 0 60432 20700.00000 0 14938060.260 -15243404.776 13980558.768 10 0 60432 21600.00000 0 16223876.814 -16125345.056 11286361.833 10 0 60432 22500.00000 0 17154442.944 -16908647.547 8372905.983 10 0 60432 23400.00000 0 17732207.540 -17534637.701 5296658.001 10 0 60432 24300.00000 0 17972435.124 -17948177.251 2117348.412 10 0 60432 25200.00000 0 17902369.260 -18100146.055 -1103188.014 10 0 60432 26100.00000 0 17559900.221 -17949692.286 -4302221.015 10 0 60432 27000.00000 0 16991792.262 -17466153.347 -7417358.567 10 0 60432 27900.00000 0 16251545.223 -16630563.278 -10387780.248 10 0 60432 28800.00000 0 15396981.403 -15436679.777 -13155444.315 10 0 60432 29700.00000 0 14487661.004 -13891484.320 -15666242.858 10 0 60432 30600.00000 0 13582237.253 -12015131.602 -17871080.319 10 0 60432 31500.00000 0 12735865.260 -9840348.331 -19726852.225 10 0 60432 32400.00000 0 11997776.378 -7411305.323 -21197303.249 10 0 60432 33300.00000 0 11409122.685 -4782009.715 -22253746.515 10 0 60432 34200.00000 0 11001184.320 -2014284.884 -22875629.191 10 0 60432 35100.00000 0 10794016.416 824576.617 -23050933.025 10 0 60432 36000.00000 0 10795593.111 3664387.916 -22776402.168 10 0 60432 36900.00000 0 11001484.366 6434761.721 -22057594.440 10 0 60432 37800.00000 0 11395078.163 9067809.849 -20908756.086 10 0 60432 38700.00000 0 11948337.065 11500735.161 -19352523.719 10 0 60432 39600.00000 0 12623055.241 13678207.759 -17419460.788 10 0 60432 40500.00000 0 13372560.708 15554426.975 -15147439.201 10 0 60432 41400.00000 0 14143788.841 17094784.539 -12580879.779 10 0 60432 42300.00000 0 14879637.736 18277061.555 -9769867.918 10 0 60432 43200.00000 0 15521504.536 19092111.991 -6769163.122 10 0 60432 44100.00000 0 16011894.742 19544007.203 -3637122.875 10 0 60432 45000.00000 0 16296994.054 19649638.761 -434562.739 10 0 60432 45900.00000 0 16329094.531 19437799.441 2776424.592 10 0 60432 46800.00000 0 16068773.584 18947783.841 5933668.253 10 0 60432 47700.00000 0 15486735.185 18227569.638 8976113.153 10 0 60432 48600.00000 0 14565237.233 17331657.420 11844986.575 10 0 60432 49500.00000 0 13299046.435 16318660.491 14484916.053 10 0 60432 50400.00000 0 11695881.765 15248745.650 16844978.456 10 0 60432 51300.00000 0 9776328.580 14181031.384 18879661.901 10 0 60432 52200.00000 0 7573226.971 13171051.051 20549723.911 10 0 60432 53100.00000 0 5130559.164 12268385.395 21822931.270 10 0 60432 54000.00000 0 2501880.827 11514561.516 22674669.083 10 0 60432 54900.00000 0 -251640.687 10941304.349 23088408.776 10 0 60432 55800.00000 0 -3063502.393 10569212.381 23056026.925 10 0 60432 56700.00000 0 -5864364.652 10406912.166 22577969.087 10 0 60432 57600.00000 0 -8584672.622 10450726.990 21663255.112 10 0 60432 58500.00000 0 -11157294.347 10684874.254 20329324.795 10 0 60432 59400.00000 0 -13520068.592 11082184.759 18601725.196 10 0 60432 60300.00000 0 -15618158.418 11605315.702 16513643.543 10 0 60432 61200.00000 0 -17406113.664 12208408.704 14105292.346 10 0 60432 62100.00000 0 -18849556.599 12839125.446 11423156.138 10 0 60432 63000.00000 0 -19926419.832 13440977.118 8519112.089 10 0 60432 63900.00000 0 -20627683.421 13955850.856 5449439.597 10 0 60432 64800.00000 0 -20957578.649 14326627.027 2273736.672 10 0 60432 65700.00000 0 -20933248.085 14499776.401 -946236.594 10 0 60432 66600.00000 0 -20583874.558 14427826.034 -4147764.951 10 0 60432 67500.00000 0 -19949314.423 14071587.381 -7268411.111 10 0 60432 68400.00000 0 -19078292.128 13402049.543 -10247249.737 10 0 60432 69300.00000 0 -18026232.271 12401854.398 -13026076.407 10 0 60432 70200.00000 0 -16852821.516 11066288.017 -15550565.855 10 0 60432 71100.00000 0 -15619404.723 9403743.457 -17771354.766 10 0 60432 72000.00000 0 -14386327.151 7435632.899 -19645025.853 10 0 60432 72900.00000 0 -13210337.062 5195750.947 -21134972.236 10 0 60432 73800.00000 0 -12142160.356 2729114.730 -22212123.881 10 0 60432 74700.00000 0 -11224351.345 90329.165 -22855521.002 10 0 60432 75600.00000 0 -10489511.452 -2658453.811 -23052722.854 10 0 60432 76500.00000 0 -9958951.465 -5449895.845 -22800044.120 10 0 60432 77400.00000 0 -9641853.449 -8214052.840 -22102614.822 10 0 60432 78300.00000 0 -9534966.637 -10881066.814 -20974263.628 10 0 60432 79200.00000 0 -9622848.419 -13383855.739 -19437228.065 10 0 60432 80100.00000 0 -9878638.103 -15660688.655 -17521698.815 10 0 60432 81000.00000 0 -10265328.327 -17657538.743 -15265208.578 10 0 60432 81900.00000 0 -10737477.923 -19330116.993 -12711879.016 10 0 60432 82800.00000 0 -11243291.563 -20645503.047 -9911542.063 10 0 60432 83700.00000 0 -11726976.325 -21583307.265 -6918754.144 10 0 60432 84600.00000 0 -12131274.167 -22136318.099 -3791723.696 10 0 60432 85500.00000 0 -12400062.446 -22310610.700 -591173.837 10 0 60433 0.00000 0 -12480912.450 -22125115.326 2620836.860 10 0 60433 900.00000 0 -12327498.339 -21610666.422 5782114.138 10 0 60433 1800.00000 0 -11901755.707 -20808575.052 8831521.051 10 0 60433 2700.00000 0 -11175700.194 -19768786.079 11710147.531 10 0 60433 3600.00000 0 -10132830.776 -18547698.621 14362430.814 10 0 60433 4500.00000 0 -8769060.088 -17205741.335 16737208.283 10 0 60433 5400.00000 0 -7093133.572 -15804803.504 18788683.986 10 0 60433 6300.00000 0 -5126520.197 -14405628.165 20477292.193 10 0 60433 7200.00000 0 -2902778.897 -13065274.474 21770443.292 10 0 60433 8100.00000 0 -466425.998 -11834753.268 22643139.496 10 0 60433 9000.00000 0 2128651.205 -10756932.452 23078449.924 10 0 60433 9900.00000 0 4821171.262 -9864797.801 23067836.881 10 0 60433 10800.00000 0 7544746.713 -9180140.397 22611327.371 10 0 60433 11700.00000 0 10230391.834 -8712724.779 21717526.205 10 0 60433 12600.00000 0 12809148.996 -8459972.581 20403469.437 10 0 60433 13500.00000 0 15214727.433 -8407175.637 18694319.326 10 0 60433 14400.00000 0 17386046.992 -8528231.006 16622904.604 10 0 60433 15300.00000 0 19269582.420 -8786868.881 14229112.569 10 0 60433 16200.00000 0 20821411.106 -9138323.843 11559142.249 10 0 60433 17100.00000 0 22008878.481 -9531380.958 8664630.769 10 0 60433 18000.00000 0 22811810.333 -9910712.004 5601667.919 10 0 60433 18900.00000 0 23223219.585 -10219404.028 2429716.587 10 0 60433 19800.00000 0 23249475.919 -10401573.377 -789540.741 10 0 60433 20700.00000 0 22909929.069 -10404953.724 -3993406.978 10 0 60433 21600.00000 0 22235999.927 -10183346.783 -7119402.836 10 0 60433 22500.00000 0 21269776.522 -9698829.463 -10106501.327 10 0 60433 23400.00000 0 20062173.502 -8923620.995 -12896338.497 10 0 60433 24300.00000 0 18670732.970 -7841527.826 -15434374.697 10 0 60433 25200.00000 0 17157160.334 -6448901.986 -17670981.591 10 0 60433 26100.00000 0 15584700.598 -4755069.623 -19562431.543 10 0 60433 27000.00000 0 14015467.596 -2782209.351 -21071768.289 10 0 60433 27900.00000 0 12507840.639 -564683.896 -22169540.490 10 0 60433 28800.00000 0 11114040.069 1852147.652 -22834382.902 10 0 60433 29700.00000 0 9877985.102 4413587.301 -23053433.444 10 0 60433 30600.00000 0 8833524.866 7057655.384 -22822578.104 10 0 60433 31500.00000 0 8003117.018 9717460.535 -22146519.516 10 0 60433 32400.00000 0 7397008.677 12323782.246 -21038668.806 10 0 60433 33300.00000 0 7012952.556 14807757.048 -19520864.100 10 0 60433 34200.00000 0 6836468.001 17103555.333 -17622922.645 10 0 60433 35100.00000 0 6841633.269 19150936.708 -15382036.914 10 0 60433 36000.00000 0 6992372.763 20897577.449 -12842028.047 10 0 60433 36900.00000 0 7244182.093 22301073.714 -10052472.797 10 0 60433 37800.00000 0 7546215.553 23330538.397 -7067722.450 10 0 60433 38700.00000 0 7843645.797 23967727.016 -3945834.016 10 0 60433 39600.00000 0 8080194.501 24207648.104 -747435.504 10 0 60433 40500.00000 0 8200726.351 24058635.406 2465452.080 10 0 60433 41400.00000 0 8153796.664 23541881.655 5630612.953 10 0 60433 42300.00000 0 7894045.648 22690456.015 8686831.964 10 0 60433 43200.00000 0 7384339.277 21547848.406 11575064.767 10 0 60433 44100.00000 0 6597567.872 20166103.037 14239561.298 10 0 60433 45000.00000 0 5518027.972 18603619.850 16628922.328 10 0 60433 45900.00000 0 4142330.555 16922715.578 18697070.568 10 0 60433 46800.00000 0 2479798.087 15187045.304 20404119.561 10 0 60433 47700.00000 0 552333.787 13458990.544 21717125.612 10 0 60433 48600.00000 0 -1606232.247 11797120.720 22610710.056 10 0 60433 49500.00000 0 -3951294.348 10253831.586 23067541.400 10 0 60433 50400.00000 0 -6429074.367 8873256.845 23078668.967 10 0 60433 51300.00000 0 -8978612.701 7689538.136 22643702.035 10 0 60433 52200.00000 0 -11534067.734 6725524.157 21770830.682 10 0 60433 53100.00000 0 -14027231.338 5991952.576 20476686.956 10 0 60433 54000.00000 0 -16390158.978 5487148.977 18786047.465 10 0 60433 54900.00000 0 -18557807.552 5197256.165 16731381.036 10 0 60433 55800.00000 0 -20470572.967 5096985.610 14352247.809 10 0 60433 56700.00000 0 -22076622.604 5150861.119 11694558.907 10 0 60433 57600.00000 0 -23333925.333 5314904.209 8809708.664 10 0 60433 58500.00000 0 -24211893.263 5538691.728 5753594.257 10 0 60433 59400.00000 0 -24692564.900 5767699.951 2585540.284 10 0 60433 60300.00000 0 -24771278.002 5945836.467 -632851.608 10 0 60433 61200.00000 0 -24456801.535 6018052.281 -3838905.759 10 0 60433 62100.00000 0 -23770919.073 5932922.196 -6970104.106 10 0 60433 63000.00000 0 -22747479.360 5645082.088 -9965321.172 10 0 60433 63900.00000 0 -21430952.893 5117417.097 -12766036.517 10 0 60433 64800.00000 0 -19874554.931 4322904.986 -15317498.972 10 0 60433 65700.00000 0 -18138014.336 3246033.484 -17569817.775 10 0 60433 66600.00000 0 -16285083.305 1883728.687 -19478957.188 10 0 60433 67500.00000 0 -14380894.330 245752.747 -21007613.377 10 0 60433 68400.00000 0 -12489277.425 -1645447.881 -22125955.025 10 0 60433 69300.00000 0 -10670152.198 -3755438.499 -22812212.242 10 0 60433 70200.00000 0 -8977105.893 -6039007.779 -23053101.887 10 0 60433 71100.00000 0 -7455260.051 -8441843.951 -22844081.045 10 0 60433 72000.00000 0 -6139515.695 -10902604.583 -22189424.292 10 0 60433 72900.00000 0 -5053250.124 -13355292.265 -21102124.148 10 0 60433 73800.00000 0 -4207518.701 -15731835.678 -19603617.926 10 0 60433 74700.00000 0 -3600793.048 -17964767.030 -17723347.765 10 0 60433 75600.00000 0 -3219243.955 -19989883.207 -15498164.035 10 0 60433 76500.00000 0 -3037554.043 -21748779.165 -12971585.343 10 0 60433 77400.00000 0 -3020222.725 -23191147.953 -10192931.192 10 0 60433 78300.00000 0 -3123305.449 -24276752.171 -7216345.638 10 0 60433 79200.00000 0 -3296511.111 -24976985.985 -4099732.193 10 0 60433 80100.00000 0 -3485567.019 -25275964.407 -903621.719 10 0 60433 81000.00000 0 -3634750.105 -25171096.700 2310004.081 10 0 60433 81900.00000 0 -3689476.806 -24673122.464 5478910.487 10 0 60433 82800.00000 0 -3598842.327 -23805611.365 8541805.889 10 0 60433 83700.00000 0 -3318002.793 -22603949.566 11439513.722 10 0 60433 84600.00000 0 -2810300.974 -21113856.821 14116098.698 10 0 60433 85500.00000 0 -2049047.348 -19389497.090 16519927.043 99